Home   Weather   Joensuu   Past weeks

Flag for Finland Past Weather in Joensuu, Finland — Yesterday and Last 2 Weeks

Now
34 °F

Sunny.


Feels Like: 31 °F
Forecast: 26 / 40 °F
Wind: 3 mph from Northwest

Location: Joensuu Airport

Current Time: Apr 23, 2017 at 9:10:24 pm

Latest Report: Apr 23, 2017 at 8:20 pm


Visibility: 10 mi

Pressure: 29.59 "Hg

Humidity: 87%

Dew Point: 30 °F

Location of JoensuuLocation

Past Weather in Joensuu — Graph

°F

Joensuu Temperature Yesterday

Maximum temperature yesterday: 41 °F (at 5:20 pm)
Minimum temperature yesterday: 28 °F (at 7:50 am)
Average temperature yesterday: 34 °F

High & Low Weather Summary for the Past Weeks

 TemperatureHumidityPressure
High41 °F (Apr 11, 12:50 am)100% (Apr 8, 8:50 pm)30.45 "Hg (Apr 8, 8:50 pm)
Low12 °F (Apr 15, 4:50 am)28% (Apr 19, 5:50 pm)29.00 "Hg (Apr 11, 2:20 am)
Average29 °F76%29.70 "Hg
* Reported Apr 8 7:20 pm — Apr 23 7:50 pm, Joensuu, Weather by CustomWeather, © 2017

Note: Actual official high and low records may vary slightly from our data, if they occured in-between our weather recording intervals... More about our weather records

Advertising

Joensuu Weather History for the Previous 24 Hours

Scroll right to see more
 ConditionsComfort  
Time TempWeatherWind HumidityBarometerVisibility
7:50 pm
Sun, Apr 23
34 °FScattered clouds.5 mph87%29.59 "HgN/A
7:20 pm36 °FSunny.5 mph81%29.56 "Hg10 mi
6:50 pm36 °FSunny.5 mph81%29.56 "Hg10 mi
6:20 pm36 °FSunny.8 mph81%29.56 "Hg10 mi
5:50 pm37 °FPassing clouds.6 mph75%29.56 "HgN/A
5:20 pm37 °FPassing clouds.6 mph75%29.53 "HgN/A
4:50 pm36 °FPartly sunny.8 mph81%29.53 "HgN/A
4:20 pm39 °FPassing clouds.6 mph61%29.53 "HgN/A
3:50 pm39 °FSunny.7 mph56%29.50 "Hg10 mi
3:20 pm39 °FPassing clouds.6 mph61%29.50 "HgN/A
2:50 pm39 °FSunny.3 mph61%29.50 "Hg10 mi
2:20 pm37 °FPassing clouds.5 mph70%29.50 "HgN/A
1:50 pm37 °FSunny.2 mph70%29.50 "Hg10 mi
1:20 pm39 °FScattered clouds.1 mph65%29.50 "HgN/A
12:50 pm34 °FPartly sunny.6 mph81%29.50 "HgN/A
12:20 pm34 °FLow clouds.2 mph87%29.50 "HgN/A
11:50 am32 °FLow clouds.5 mph93%29.47 "HgN/A
11:20 am32 °FLow clouds.3 mph93%29.47 "HgN/A
10:50 am32 °FLow clouds.3 mph93%29.47 "HgN/A
10:20 am30 °FLow clouds.3 mph100%29.45 "HgN/A
9:50 am30 °FLow clouds.5 mph100%29.45 "HgN/A
9:20 am30 °FIce fog.3 mph93%29.45 "Hg3 mi
8:50 am28 °FLow clouds.5 mph100%29.45 "HgN/A
8:20 am28 °FLow clouds.3 mph100%29.42 "HgN/A
7:50 am28 °FIce fog.6 mph100%29.42 "Hg1 mi
7:20 am28 °FIce fog.7 mph100%29.42 "Hg2 mi
6:50 am28 °FIce fog.5 mph100%29.39 "Hg1 mi
6:20 am28 °FPartly sunny.3 mph93%29.39 "HgN/A
5:50 am28 °FSunny.2 mph93%29.39 "Hg10 mi
5:20 am30 °FPartly sunny.2 mph86%29.39 "HgN/A
4:50 am30 °FPassing clouds.2 mph86%29.36 "HgN/A
4:20 am30 °FPassing clouds.1 mph93%29.36 "HgN/A
3:50 am30 °FClear.5 mph86%29.36 "Hg10 mi
3:20 am32 °FPassing clouds.7 mph87%29.36 "HgN/A
2:50 am32 °FPassing clouds.7 mph87%29.36 "HgN/A
2:20 am32 °FPassing clouds.5 mph87%29.36 "HgN/A
1:50 am30 °FClear.7 mph93%29.36 "Hg10 mi
1:20 am27 °FClear.3 mph100%29.36 "Hg10 mi
12:50 am28 °FClear.6 mph93%29.33 "Hg10 mi
12:20 am28 °FClear.5 mph93%29.33 "Hg10 mi
11:50 pm
Sat, Apr 22
28 °FClear.5 mph93%29.33 "Hg10 mi
11:20 pm28 °FPassing clouds.5 mph100%29.33 "HgN/A
10:50 pm30 °FClear.5 mph93%29.33 "Hg10 mi
10:20 pm30 °FClear.2 mph93%29.33 "Hg10 mi
9:50 pm32 °FClear.3 mph87%29.33 "Hg10 mi
9:20 pm34 °FClear.3 mph81%29.33 "Hg10 mi
Weather by CustomWeather, © 2017

See weather overviewHow to use our weather pages